User: anonymous   Login
Location: Unspecified
(0.0000°N, 0.0000°E)
Time: 04:57:47
(UTC+00:00)
Language:

BEESAT 3 - Orbit

View from above orbital plane
View from above orbital plane
View from above satellite
View from above satellite

Ground track
Ground track

The orbit data is extracted from the following two-line orbital elements,

1 39134U 13015E   21297.87368914  .00003513  00000-0  15477-3 0  9996
2 39134  64.8618 111.3618 0021197 313.2335  46.7023 15.23408493470929
Epoch (UTC): 24 October 2021 20:58:06
Eccentricity: 0.0021197
inclination: 64.8618°
perigee height: 481 km
apogee height: 510 km
right ascension of ascending node: 111.3618°
argument of perigee: 313.2335°
revolutions per day: 15.23408493
mean anomaly at epoch: 46.7023°
orbit number at epoch: 47092

The dashed part of the orbit path shows where the satellite is in the earth's shadow,  

DLR